Location: Kalberh�ni
(46.4610°N, 7.2453°E)
Time: 22:14:25
(UTC+00:00)

USA 229 - Pass Details

Date: 28 October 2021
Orbit: 946 x 1266 km, 63.4° (Epoch: 25 November)

Event Time Altitude Azimuth Distance (km) Brightness Sun altitude
Rises 18:06:31 0° 232° (SW) 3,644 7.4 -18.5°
Reaches altitude 10° 18:09:03 10° 236° (WSW) 2,726 6.6 -19.0°
Maximum altitude 18:15:21 59° 316° (NW) 1,176 4.1 -20.0°
Enters shadow 18:21:45 12° 35° (NE) 2,795 5.6 -21.1°
